Temp
2 2 2 3 3 3 3 4 4 4 4 5 5 5 5 5 5 6 6 6 6 6 7 7 7 7 7 7 7 6 6 6 6 6 5 4 5 5 6 6 6 6 6 7 7 7 6
2 2 2 2 2 3 3 3 3 4 4 4 4 4 5 5 5 5 6 6 6 6 7 7 7 7 7 7 6 6 6 6 6 5 4 4 4 5 5 6 6 6 7 7 7 7 6
1 1 1 1 2 2 2 2 3 3 3 4 4 4 5 5 5 5 5 5 5 5 6 6 7 7 7 6 6 6 6 6 5 5 4 4 5 5 5 6 6 7 7 7 7 7 7
1 1 1 1 1 1 2 2 2 2 3 3 4 4 4 5 5 5 5 5 5 5 6 6 6 7 7 7 6 6 5 5 5 5 5 4 5 5 6 6 6 7 7 7 7 7 7
1 1 1 1 1 2 1 1 2 2 2 3 3 4 4 5 5 5 4 4 4 5 6 6 6 6 7 7 6 6 5 5 5 5 5 5 5 5 6 6 6 7 7 7 7 7 7
0 0 0 1 1 1 1 2 2 1 2 2 2 3 4 4 5 4 4 4 4 5 6 6 6 6 6 6 6 6 5 5 5 5 4 5 5 5 6 6 6 7 7 7 7 7 7
0 0 0 -0 1 1 1 1 1 2 1 1 1 2 2 3 5 5 4 3 4 4 5 5 6 6 7 6 6 6 6 5 6 5 5 5 5 5 6 6 6 6 7 7 7 7 7
0 0 -0 -0 -0 0 1 1 1 1 1 1 1 1 1 2 3 4 3 3 3 3 5 5 6 6 6 6 6 5 6 6 6 6 5 5 6 6 6 6 6 6 7 7 7 7 7
0 1 -0 -0 -0 -1 -0 0 1 1 1 1 1 1 1 1 2 3 2 2 3 3 3 6 6 7 6 6 6 6 6 6 6 6 6 5 6 6 7 7 7 7 7 7 6 6 7
-4 -3 -1 -0 -0 -0 -1 -0 0 1 1 0 1 1 1 1 2 2 2 2 2 2 2 6 6 7 6 6 6 5 6 6 6 6 6 5 6 6 6 7 7 7 7 7 7 7 7
-4 -4 -5 -5 -2 -0 -0 -1 -1 -0 0 0 0 0 1 0 2 1 2 1 1 2 -2 5 5 5 6 6 6 6 5 5 6 6 6 6 6 6 6 6 7 7 7 6 7 7 7
-4 -4 -5 -4 -5 -3 -1 -0 -1 -1 -0 0 0 0 0 1 1 0 -0 -1 0 1 -1 5 5 5 6 5 6 6 5 5 6 5 5 6 6 6 6 6 7 7 6 7 6 6 4
-5 -4 -4 -5 -5 -5 -4 -1 -0 -1 -1 -1 -0 0 0 1 1 -0 -0 -2 -1 -1 3 5 5 5 5 5 5 5 5 5 5 5 5 6 6 6 6 6 6 6 6 6 5 2 2
-8 -7 -5 -5 -5 -5 -6 -5 -3 -1 -1 -1 -1 -0 0 1 1 -1 -1 -2 -2 0 2 4 4 4 5 5 5 5 5 5 5 5 6 6 6 6 6 6 6 6 6 6 4 1 4
-8 -8 -8 -7 -5 -6 -6 -7 -8 -6 -2 -1 -1 -1 -0 0 0 -1 -2 -3 -1 -0 3 4 4 4 4 4 5 5 5 5 5 5 5 6 6 6 6 6 6 6 7 6 6 4 3
-7 -7 -8 -8 -8 -7 -7 -7 -9 -7 -6 -3 -2 -1 -0 -1 -0 -1 -3 -3 -2 -0 2 2 3 4 5 5 5 5 5 5 5 5 6 6 6 6 6 6 6 6 7 6 6 3 3
-7 -7 -7 -8 -8 -9 -8 -8 -8 -7 -8 -7 -4 -2 -1 -1 -1 -2 -4 -4 -3 0 1 1 2 4 5 5 5 5 5 5 5 6 6 6 6 6 6 6 6 6 6 6 6 5 1
-7 -7 -7 -7 -7 -8 -8 -8 -8 -8 -8 -10 -8 -5 -2 -2 -3 -2 -4 -3 -3 -0 1 0 2 3 4 5 5 5 5 5 6 6 6 6 6 6 6 6 6 6 6 6 6 5 5
-8 -8 -8 -7 -8 -8 -8 -8 -9 -9 -8 -9 -7 -7 -6 -4 -3 -1 -3 -4 -3 -0 1 1 2 2 3 4 5 5 5 5 6 6 6 6 5 5 5 6 6 6 6 6 6 5 5
-9 -9 -8 -8 -8 -7 -8 -8 -9 -9 -8 -9 -8 -8 -6 -6 -1 -2 -4 -4 -4 1 -0 0 1 2 3 4 4 5 5 6 6 6 6 6 6 6 5 6 6 6 6 6 6 5 6
-9 -9 -9 -8 -8 -8 -8 -8 -8 -9 -9 -9 -9 -8 -6 -6 -2 -3 -3 -3 -2 -0 0 -0 1 2 3 3 4 5 6 6 6 6 6 6 5 6 6 6 6 6 6 6 6 6 6
-9 -9 -9 -9 -8 -8 -8 -8 -8 -8 -9 -9 -9 -8 -7 -5 -2 -4 -5 -5 -2 1 -0 0 1 2 3 3 4 5 5 6 6 6 6 6 6 6 6 6 6 6 6 6 6 6 6
-9 -9 -8 -9 -7 -8 -8 -8 -8 -9 -9 -9 -9 -8 -7 -6 -4 -4 -1 -4 -3 -1 0 -2 2 2 2 4 4 3 3 4 5 6 6 6 6 5 5 5 5 5 6 6 6 6 6
-9 -9 -9 -8 -7 -8 -8 -8 -8 -9 -9 -8 -8 -8 -8 -7 -5 -2 -3 -5 -4 1 0 1 0 1 2 2 3 3 4 5 5 5 6 6 6 5 6 5 -1 6 5 5 5 5 5
-9 -9 -9 -9 -8 -8 -8 -8 -9 -9 -9 -8 -8 -8 -7 -6 -6 -6 -5 -4 -4 -2 -0 0 1 1 0 -0 2 2 3 4 4 5 5 5 6 5 5 4 5 5 5 5 5 5 5
-9 -9 -9 -8 -8 -8 -8 -8 -9 -9 -9 -9 -9 -8 -6 -5 -5 -6 -5 -5 -4 -1 -2 1 0 1 0 0 -0 1 3 4 4 4 5 5 5 5 4 4 -1 5 5 4 4 4 4
-9 -8 -8 -8 -8 -8 -8 -9 -9 -9 -9 -10 -10 -9 -7 -6 -5 -6 -5 -4 -4 -2 -1 0 1 0 -0 -1 -0 1 1 4 4 4 4 4 5 4 4 3 4 4 4 4 3 5 4
-8 -8 -8 -8 -8 -8 -8 -9 -9 -10 -11 -10 -10 -9 -8 -7 -4 -4 -5 -4 -3 -1 -0 -0 -2 -0 -0 -1 -1 0 2 4 5 5 5 5 4 4 3 2 1 4 4 4 4 4 4
-8 -7 -8 -8 -8 -8 -9 -9 -10 -11 -10 -10 -10 -9 -8 -7 -5 -4 -5 -5 -3 -2 -1 -0 1 1 1 -1 -0 1 2 4 4 4 5 5 5 5 4 4 4 4 4 3 4 3 4
Height
3110 3110 3111 3111 3112 3113 3114 3113 3116 3118 3120 3122 3123 3124 3125 3127 3126 3126 3126 3126 3126 3126 3126 3124 3123 3121 3120 3120 3120 3118 3119 3117 3116 3117 3118 3119 3120 3120 3120 3121 3121 3121 3120 3119 3120 3118 3118
3102 3103 3104 3106 3106 3108 3108 3110 3110 3111 3113 3115 3116 3118 3119 3120 3121 3121 3121 3121 3121 3121 3121 3121 3120 3118 3118 3118 3118 3117 3118 3117 3117 3117 3118 3119 3120 3120 3119 3120 3120 3119 3119 3120 3119 3118 3119
3094 3095 3097 3098 3099 3101 3102 3104 3105 3106 3107 3109 3110 3111 3112 3113 3114 3116 3116 3115 3116 3117 3117 3117 3117 3115 3115 3116 3115 3116 3117 3117 3117 3117 3118 3119 3119 3120 3120 3120 3119 3119 3119 3118 3118 3118 3119
3083 3085 3087 3090 3093 3094 3096 3096 3099 3100 3103 3105 3105 3106 3107 3107 3108 3108 3110 3110 3111 3111 3113 3113 3113 3112 3111 3112 3114 3115 3115 3116 3116 3117 3117 3118 3118 3119 3119 3120 3119 3118 3119 3118 3117 3119 3120
3071 3074 3077 3080 3083 3086 3088 3090 3092 3093 3096 3099 3102 3102 3102 3102 3102 3103 3104 3104 3107 3106 3108 3109 3110 3109 3108 3110 3111 3113 3114 3115 3116 3116 3117 3117 3118 3119 3119 3119 3119 3118 3118 3119 3119 3120 3120
3056 3060 3063 3067 3072 3075 3079 3082 3085 3088 3089 3092 3095 3097 3099 3098 3099 3097 3098 3098 3101 3101 3103 3104 3105 3108 3107 3108 3107 3110 3112 3113 3115 3115 3116 3116 3116 3117 3118 3119 3119 3118 3118 3119 3120 3121 3119
3040 3044 3050 3054 3058 3064 3068 3073 3076 3081 3084 3085 3088 3092 3093 3094 3094 3094 3095 3095 3100 3099 3097 3099 3101 3100 3102 3104 3106 3108 3110 3112 3113 3114 3115 3115 3115 3115 3116 3118 3118 3118 3118 3119 3119 3120 3120
3021 3027 3032 3039 3044 3050 3056 3061 3067 3071 3076 3080 3082 3085 3088 3089 3089 3090 3090 3090 3094 3094 3090 3094 3093 3094 3097 3100 3103 3105 3108 3111 3111 3112 3114 3116 3115 3116 3116 3117 3118 3117 3118 3118 3118 3117 3118
3001 3006 3013 3020 3029 3036 3042 3049 3055 3061 3067 3072 3076 3079 3082 3083 3085 3086 3086 3088 3089 3089 3087 3086 3086 3087 3092 3096 3098 3101 3105 3108 3110 3111 3113 3113 3115 3115 3115 3116 3117 3116 3116 3117 3117 3115 3116
2986 2986 2991 3000 3009 3020 3029 3037 3044 3050 3057 3064 3068 3073 3075 3077 3082 3081 3083 3086 3087 3086 3087 3079 3079 3079 3084 3089 3093 3098 3101 3107 3107 3109 3111 3112 3112 3112 3112 3112 3115 3116 3115 3115 3114 3114 3115
2974 2976 2978 2980 2988 2999 3011 3022 3032 3040 3048 3054 3061 3065 3069 3070 3075 3079 3080 3083 3085 3084 3089 3075 3072 3074 3076 3084 3089 3093 3097 3101 3104 3106 3110 3111 3110 3111 3111 3111 3113 3114 3115 3114 3113 3113 3114
2960 2964 2965 2967 2973 2978 2990 3002 3016 3026 3035 3044 3051 3056 3062 3064 3071 3076 3074 3080 3083 3087 3079 3071 3069 3069 3072 3078 3085 3089 3093 3098 3102 3104 3105 3107 3108 3109 3108 3109 3110 3113 3114 3113 3112 3112 3113
2941 2947 2952 2955 2958 2965 2970 2981 2997 3010 3021 3031 3040 3046 3052 3059 3067 3070 3071 3077 3082 3077 3072 3070 3068 3067 3069 3073 3081 3084 3087 3091 3095 3100 3102 3105 3105 3106 3104 3106 3108 3111 3112 3113 3114 3114 3113
2922 2927 2934 2939 2945 2951 2957 2965 2974 2991 3005 3017 3029 3036 3042 3051 3059 3064 3067 3073 3067 3061 3064 3066 3065 3066 3066 3071 3077 3080 3083 3086 3092 3096 3099 3101 3104 3104 3104 3106 3107 3108 3109 3111 3114 3116 3110
2906 2912 2917 2922 2930 2937 2944 2952 2962 2975 2988 3001 3014 3023 3030 3041 3051 3056 3061 3059 3052 3057 3058 3062 3064 3064 3065 3069 3074 3076 3080 3083 3087 3091 3096 3098 3100 3102 3102 3104 3106 3106 3106 3108 3109 3111 3111
2889 2896 2902 2908 2916 2923 2932 2941 2951 2965 2972 2984 2998 3009 3018 3032 3042 3049 3051 3042 3045 3055 3057 3057 3059 3062 3060 3064 3070 3072 3075 3078 3082 3088 3092 3095 3098 3099 3101 3102 3103 3102 3104 3106 3106 3109 3111
2871 2878 2886 2894 2902 2911 2920 2930 2940 2956 2963 2973 2983 2994 3006 3021 3030 3036 3028 3028 3039 3050 3054 3056 3055 3057 3058 3061 3065 3066 3070 3076 3079 3084 3088 3091 3095 3098 3098 3098 3099 3100 3100 3102 3104 3104 3104
2851 2860 2869 2878 2888 2899 2909 2919 2930 2945 2954 2965 2973 2979 2992 3008 3016 3016 3015 3020 3034 3042 3049 3050 3051 3054 3056 3059 3061 3064 3066 3072 3076 3080 3083 3088 3090 3092 3095 3095 3096 3096 3097 3098 3099 3100 3099
2833 2843 2852 2863 2873 2885 2896 2907 2918 2932 2943 2956 2963 2971 2984 2996 2999 2998 3008 3016 3027 3035 3039 3043 3048 3050 3052 3055 3059 3061 3064 3070 3073 3076 3079 3083 3085 3089 3090 3093 3091 3090 3093 3094 3094 3095 3094
2816 2826 2837 2848 2859 2871 2884 2895 2905 2918 2931 2947 2956 2962 2975 2980 2988 2992 3000 3006 3015 3026 3031 3037 3041 3047 3050 3051 3054 3057 3060 3065 3069 3073 3076 3078 3079 3080 3082 3084 3089 3089 3088 3089 3090 3090 3089
2799 2810 2822 2832 2844 2858 2871 2883 2894 2906 2921 2936 2944 2948 2954 2957 2969 2979 2991 2997 3006 3015 3022 3031 3034 3041 3047 3050 3052 3054 3057 3060 3064 3067 3070 3072 3073 3076 3078 3081 3083 3083 3084 3085 3085 3084 3084
2782 2795 2808 2820 2832 2847 2860 2870 2882 2896 2914 2923 2934 2941 2950 2952 2967 2975 2982 2984 2993 3009 3016 3019 3026 3035 3043 3046 3051 3053 3055 3057 3058 3063 3065 3067 3070 3072 3073 3075 3077 3077 3078 3079 3080 3079 3078
2766 2781 2795 2809 2822 2836 2850 2862 2876 2890 2900 2910 2925 2935 2944 2950 2957 2965 2956 2975 2987 3004 3010 3015 3025 3032 3036 3044 3049 3050 3050 3052 3054 3057 3059 3062 3065 3068 3070 3071 3072 3071 3072 3074 3074 3073 3074
2753 2770 2784 2798 2812 2828 2842 2856 2868 2880 2889 2903 2914 2928 2936 2941 2947 2945 2964 2973 2982 2992 3004 3012 3021 3026 3034 3041 3044 3045 3046 3046 3048 3051 3054 3056 3059 3064 3066 3067 3069 3064 3066 3068 3067 3067 3067
2746 2762 2775 2790 2806 2821 2836 2850 2863 2875 2890 2902 2913 2923 2933 2937 2943 2951 2958 2966 2982 2992 2997 3004 3014 3025 3031 3034 3040 3040 3040 3041 3041 3045 3048 3051 3054 3058 3061 3061 3060 3058 3059 3061 3059 3060 3060
2743 2758 2773 2784 2802 2817 2831 2845 2859 2871 2883 2895 2907 2919 2929 2934 2936 2949 2957 2963 2972 2982 2993 2996 3010 3021 3025 3030 3035 3031 3032 3035 3037 3039 3043 3047 3050 3055 3054 3056 3056 3053 3056 3056 3055 3052 3054
2746 2758 2773 2786 2802 2816 2830 2843 2856 2867 2879 2888 2901 2915 2923 2929 2935 2943 2949 2958 2969 2980 2983 2992 3003 3015 3019 3022 3024 3027 3029 3030 3030 3033 3038 3041 3044 3047 3049 3050 3048 3049 3050 3050 3051 3048 3049
2750 2760 2773 2788 2804 2818 2830 2841 2853 2863 2873 2883 2898 2912 2921 2928 2933 2939 2947 2953 2963 2972 2976 2986 3000 3002 3011 3015 3017 3020 3022 3023 3027 3029 3030 3035 3040 3042 3044 3046 3044 3044 3045 3045 3045 3044 3045
2755 2766 2781 2793 2807 2819 2830 2841 2850 2861 2872 2884 2896 2910 2922 2926 2932 2933 2940 2948 2954 2967 2979 2985 2987 2992 3000 3008 3011 3014 3016 3016 3019 3023 3026 3029 3032 3036 3039 3036 3037 3037 3038 3039 3039 3041 3042
Wind_Speed
33 32 32 31 32 33 33 33 34 33 33 33 31 29 29 29 28 28 27 27 25 24 21 20 17 16 13 8 4 0 2 4 6 2 8 9 8 8 5 5 1 4 4 2 3 8 3
38 35 33 32 31 31 30 31 31 32 32 32 30 28 29 29 29 28 26 27 24 23 20 20 17 14 12 7 6 4 3 3 4 5 9 5 3 3 4 3 2 5 3 1 3 2 3
45 42 39 35 33 31 30 28 28 28 28 28 28 27 28 29 27 28 27 27 25 22 20 19 17 14 10 7 8 8 5 1 1 7 7 4 3 2 3 3 2 4 3 3 4 3 5
51 49 45 43 39 35 32 30 28 26 25 23 22 21 24 26 27 26 28 27 25 21 21 20 17 13 8 7 9 11 8 3 1 7 11 8 9 7 6 5 1 6 3 1 4 8 7
55 54 52 49 45 42 38 34 31 28 25 23 20 17 18 21 24 25 28 26 27 22 22 21 17 14 8 9 13 16 11 6 2 6 13 12 12 9 9 7 2 4 3 4 10 8 3
60 57 56 55 53 48 45 40 36 33 30 28 23 21 21 22 22 23 27 26 26 23 23 22 19 14 10 14 19 19 14 11 7 3 4 10 16 14 8 3 1 1 2 6 9 12 8
65 62 61 59 57 55 50 47 42 38 35 30 27 23 21 22 25 24 25 26 24 23 24 24 17 9 9 17 20 20 17 12 10 5 3 3 6 10 7 5 2 4 1 5 2 12 13
70 69 66 63 60 59 57 52 49 44 40 35 32 29 27 23 22 21 24 24 21 22 25 21 19 19 16 20 23 25 22 16 12 7 3 2 3 5 5 3 1 3 3 3 5 10 10
66 70 69 69 64 62 60 58 54 50 45 40 34 29 27 29 24 19 22 22 19 19 25 23 23 20 20 23 26 29 25 19 15 9 5 6 4 2 4 5 4 3 1 9 18 7 13
45 52 66 69 69 65 63 61 59 55 50 44 38 32 26 26 26 19 16 19 16 14 16 19 14 18 23 28 29 28 28 21 18 13 9 8 6 9 9 8 10 10 4 15 12 5 2
47 45 47 46 66 69 67 63 60 58 53 47 41 35 31 26 25 21 15 10 10 6 5 7 15 15 24 32 21 32 29 26 22 16 9 5 6 6 10 12 11 16 10 16 9 4 5
52 51 50 48 46 62 70 67 63 60 57 51 45 40 36 32 25 21 19 11 10 6 8 6 9 18 26 34 19 30 31 28 22 19 15 13 12 13 16 15 15 11 12 12 9 5 2
57 55 54 53 50 46 58 70 66 62 59 56 50 45 42 35 27 25 19 15 13 13 7 13 13 19 24 36 29 21 33 32 27 19 17 15 15 12 7 15 18 14 11 4 2 1 4
52 54 57 56 53 50 43 61 65 66 62 59 54 50 46 41 32 28 25 24 17 13 37 7 16 18 22 32 35 22 23 34 30 23 10 15 14 15 10 13 14 12 7 5 3 2 3
52 52 52 55 55 51 45 42 56 53 64 61 57 55 53 45 37 33 31 34 20 21 11 41 10 17 23 29 28 32 24 24 32 28 22 8 17 14 14 9 9 10 6 6 4 2 1
54 52 53 54 52 51 47 40 49 43 57 61 60 59 57 48 41 37 39 42 35 25 17 17 26 15 26 27 29 27 32 29 32 28 24 22 7 17 15 14 10 7 7 4 4 3 3
55 57 55 57 54 50 48 43 38 43 46 52 57 59 60 52 46 44 52 48 37 30 24 13 16 12 21 28 27 27 26 16 31 26 25 23 19 16 15 19 16 12 11 11 8 5 4
55 57 58 57 59 54 49 44 37 47 45 40 37 57 61 56 50 55 57 53 41 38 34 28 14 18 19 23 28 31 24 31 21 25 28 22 12 20 23 14 14 12 13 17 16 7 7
52 55 59 59 57 57 50 46 42 61 51 43 46 48 37 51 58 64 56 50 42 45 39 38 33 15 14 14 17 26 29 26 27 19 21 23 30 19 21 28 24 27 24 23 19 12 15
54 55 58 56 56 55 52 48 45 60 58 48 44 38 41 44 65 64 56 42 50 50 43 42 39 32 19 14 14 22 26 27 30 26 21 21 29 26 27 27 18 18 22 19 19 12 14
55 53 54 57 55 54 54 48 47 62 58 54 53 44 49 54 66 68 59 52 53 54 51 44 41 44 30 17 10 22 25 29 27 23 23 24 22 31 28 30 27 24 21 21 23 25 22
53 52 52 55 53 54 57 51 51 56 62 53 62 47 51 52 65 63 47 55 53 55 47 48 49 40 42 28 10 12 11 23 26 25 25 25 21 22 30 25 21 21 20 21 22 22 24
53 51 53 54 55 56 58 50 60 59 56 59 64 53 42 54 50 61 77 56 56 51 56 39 39 41 40 39 21 18 18 17 20 25 26 28 25 22 22 19 20 23 25 25 29 31 30
49 50 53 59 61 54 58 51 58 56 65 60 68 60 44 39 50 65 62 59 46 60 55 51 37 27 33 36 28 24 22 21 21 22 27 29 30 26 20 18 3 26 27 26 28 31 31
47 48 47 55 56 53 58 52 63 59 58 58 59 63 41 40 51 41 50 50 50 50 52 50 35 31 11 18 31 23 21 23 20 24 29 32 28 22 15 20 23 21 23 21 17 20 20
50 45 46 47 48 55 55 49 57 70 60 55 59 60 29 25 46 48 37 41 46 55 52 54 41 22 36 23 21 16 14 17 15 23 25 27 27 30 14 8 8 26 21 25 22 28 24
40 39 46 47 51 52 49 46 52 62 65 61 62 66 53 22 20 33 47 45 37 41 51 52 46 35 26 21 21 27 28 20 21 27 23 27 28 27 25 17 19 22 19 15 19 28 19
37 42 42 44 46 46 43 43 47 54 56 61 60 68 54 33 23 21 34 44 42 39 38 35 35 42 43 35 23 20 21 27 26 28 33 32 28 26 26 16 16 23 22 26 27 19 17
35 34 39 38 46 39 41 43 50 48 58 48 58 60 56 23 31 16 36 36 39 40 43 33 36 36 36 32 29 24 18 19 27 31 33 34 35 29 27 27 27 18 14 21 22 21 11
Wind_Direction
261 261 261 259 258 257 255 252 254 257 259 259 260 261 261 265 265 269 274 278 284 288 292 296 305 312 308 293 266 219 103 49 43 139 151 131 144 155 128 92 340 329 352 257 334 315 347
258 258 258 259 258 259 257 256 254 253 254 257 257 258 261 262 265 268 269 273 277 282 285 289 297 304 294 270 242 182 149 22 36 129 144 140 140 187 160 174 321 342 128 174 321 208 130
258 257 255 253 254 253 253 254 252 253 252 252 254 253 253 256 259 264 265 267 272 276 278 283 289 295 282 243 223 176 161 113 4 167 169 224 220 220 227 224 17 119 134 317 212 195 129
257 254 253 252 252 250 250 247 248 247 248 248 247 251 256 254 256 255 261 264 266 269 272 277 281 284 270 240 199 172 171 173 257 203 207 236 244 238 262 278 181 168 178 268 169 170 190
256 255 253 251 249 248 247 246 244 241 243 243 244 253 261 262 256 257 260 260 264 263 265 272 274 275 242 205 184 180 179 182 195 224 229 241 260 249 258 306 267 207 210 189 156 173 188
255 253 251 250 248 246 246 245 244 242 239 240 246 247 259 269 269 258 259 260 259 259 260 265 267 265 226 195 192 180 185 184 200 211 217 248 259 264 230 251 23 355 202 204 199 184 210
256 253 250 249 246 246 243 242 242 243 244 241 240 248 250 259 264 266 257 258 261 262 253 260 255 235 216 202 199 183 188 189 178 184 206 236 236 223 189 190 251 30 126 130 165 214 246
256 254 252 248 246 242 242 240 240 240 242 244 244 247 246 254 255 259 261 256 257 264 263 257 249 241 221 210 196 189 190 188 177 163 198 247 176 116 115 205 262 38 90 15 337 337 227
252 252 251 249 246 243 241 238 237 237 238 240 242 243 244 246 252 256 263 253 251 266 277 251 249 242 216 214 202 194 191 191 185 188 221 278 231 303 198 267 223 208 346 353 337 320 226
264 259 248 246 246 243 242 240 237 235 235 236 237 240 240 242 247 258 265 247 249 273 288 258 255 247 214 209 209 195 194 198 198 198 226 275 242 268 263 219 226 205 307 337 336 314 216
259 263 265 263 240 240 239 238 238 236 234 233 235 235 238 239 236 241 243 237 242 270 294 232 227 216 202 208 212 199 197 200 205 200 210 246 276 270 283 246 210 245 285 322 324 291 280
255 255 257 259 258 240 235 234 234 234 232 230 229 231 232 234 234 240 233 214 216 240 249 252 225 202 196 201 196 198 202 207 210 221 231 246 273 275 277 237 224 228 283 310 287 252 210
256 251 252 255 254 254 238 228 228 229 229 229 225 226 229 227 225 230 224 205 205 215 247 248 226 207 205 199 192 194 199 204 208 210 230 243 252 271 285 221 215 233 274 314 312 17 215
251 251 246 246 250 249 251 234 223 222 224 225 224 222 226 225 215 216 211 195 222 236 221 252 214 218 213 205 199 191 198 208 212 212 217 222 231 256 254 234 243 252 212 195 234 195 274
242 245 243 239 242 243 244 243 225 227 217 220 220 220 222 221 214 212 206 214 221 221 215 227 247 217 212 209 209 202 204 206 211 208 217 218 229 246 237 221 198 207 222 228 191 280 341
244 239 240 241 239 238 237 237 217 221 224 214 215 217 219 216 212 210 207 220 224 213 225 231 228 219 213 213 207 211 212 216 209 212 219 231 245 236 233 216 219 216 227 195 207 161 235
240 237 234 237 237 237 234 232 222 211 231 218 212 212 214 211 206 206 216 217 219 208 210 217 208 226 220 219 212 211 215 209 209 210 223 223 226 235 229 222 222 224 221 236 242 217 175
241 237 230 232 235 232 231 228 217 200 216 211 201 210 211 209 199 211 218 222 215 220 215 222 226 214 216 223 217 215 211 209 205 216 219 219 232 232 241 232 228 243 258 261 236 227 223
241 237 228 227 231 229 226 225 214 199 214 202 194 205 206 206 202 215 220 219 219 226 221 229 227 223 215 230 221 223 222 216 213 214 224 230 233 235 242 245 248 260 267 265 238 247 240
240 236 229 223 225 225 221 222 211 200 206 205 192 184 189 201 214 219 212 215 220 225 229 224 226 222 218 221 226 230 227 220 219 231 239 247 231 225 227 240 244 254 254 248 239 248 264
234 230 228 221 221 219 215 217 201 199 201 200 194 194 191 195 207 214 220 217 221 222 228 224 229 225 228 239 233 220 227 231 236 236 233 234 230 231 238 242 249 255 247 256 262 262 260
226 223 220 221 218 213 208 210 200 196 198 203 195 192 195 206 210 208 209 214 223 221 223 225 225 226 225 230 203 178 228 232 238 235 222 227 225 237 230 228 237 236 249 255 254 255 258
220 215 216 216 211 208 204 201 192 198 193 197 196 194 197 202 210 210 217 212 217 223 224 228 231 232 229 228 231 266 247 229 223 232 226 223 231 225 227 227 233 245 244 258 265 264 263
209 207 209 208 211 204 199 199 192 198 195 189 193 191 196 207 206 216 218 214 212 223 227 230 223 235 233 231 235 250 241 228 232 235 236 232 225 225 231 222 233 248 260 267 263 260 261
199 199 203 208 202 200 199 200 194 192 193 199 203 196 198 211 214 212 216 221 212 220 227 231 224 216 214 222 235 250 258 245 231 226 230 225 225 215 218 225 247 253 256 266 272 275 275
193 196 200 201 195 193 198 203 198 197 200 204 198 194 186 207 222 217 214 218 217 222 225 231 227 207 224 234 230 234 220 221 203 210 217 220 220 223 217 224 220 267 271 261 255 262 271
185 187 194 191 189 189 197 201 197 199 202 208 200 193 198 202 186 210 220 217 216 220 229 232 233 211 205 214 232 237 243 228 208 203 205 213 218 225 231 236 254 267 272 240 225 259 278
174 185 182 178 183 189 195 195 193 199 201 195 198 194 203 224 173 199 212 221 215 216 222 228 228 225 219 224 219 210 230 220 220 220 216 217 212 217 229 235 259 262 246 236 262 278 260
164 165 167 174 187 188 187 183 186 184 189 188 193 189 201 218 200 180 197 207 214 227 233 239 233 225 219 217 218 219 229 205 215 220 220 224 231 235 233 243 258 260 268 259 260 252 224